Change the Weather History Date:

Friday, August 30, 2013

  Actual Average (KJFX) Record (KJFX)
Temperature  
Mean Temperature 80 °F -  
Max Temperature 92 °F 88 °F 101 °F (1990)
Min Temperature 68 °F 64 °F 52 °F (1992)
Cooling Degree Days 15    
Growing Degree Days 30 (Base 50)    
Moisture  
Dew Point 71 °F    
Average Humidity 82    
Maximum Humidity 100    
Minimum Humidity 45    
Precipitation  
Precipitation 0.00 in - - ()
Sea Level Pressure  
Sea Level Pressure 30.06 in    
Wind  
Wind Speed 1 mph (WSW)    
Max Wind Speed 7 mph    
Max Gust Speed -    
Visibility 7 miles    
Events      
Averages and records for this station are not official NWS values.
T = Trace of Precipitation, MM = Missing Value Source: NWS Daily Summary

Daily Weather History Graph

Daily Weather History Graph

Search for Another Location

Airport or City:

Trip Planner

Search our weather history database for the weather conditions in past years. The results will help you decide how hot, cold, wet, or windy it might be!

Date:

Astronomy

Aug. 30, 2013 Rise Set
Actual Time 6:22 AM CDT 7:18 PM CDT
Civil Twilight 5:56 AM CDT 7:44 PM CDT
Nautical Twilight 5:26 AM CDT 8:14 PM CDT
Astronomical Twilight 4:54 AM CDT 8:45 PM CDT
Moon 1:08 AM CDT (8/30) 3:26 PM CDT (8/30)
Length of Visible Light 13h 47m
Length of Day
12h 56m
Waning Crescent, 29% of the Moon is Illuminated
Aug 30
Waning Crescent
Sep 5
New
Sep 12
First Quarter
Sep 19
Full
Sep 26
Last Quarter

Hourly Weather History & Observations

Time (CDT) Temp. Heat Index Dew Point Humidity Pressure Visibility Wind Dir Wind Speed Gust Speed Precip Events Conditions
12:56 AM 70.9 °F - 70.9 °F 100% 30.07 in 6.0 mi Calm Calm - N/A   Clear
1:56 AM 70.9 °F - 70.9 °F 100% 30.06 in 2.5 mi Calm Calm - N/A   Clear
2:03 AM 71.6 °F - 71.6 °F 100% 30.03 in 3.0 mi Calm Calm - N/A   Clear
2:56 AM 70.0 °F - 70.0 °F 100% 30.07 in 4.0 mi Calm Calm - N/A   Clear
3:56 AM 70.0 °F - 70.0 °F 100% 30.07 in 6.0 mi Calm Calm - N/A   Clear
4:56 AM 68.9 °F - 68.9 °F 100% 30.07 in 2.0 mi Calm Calm - N/A   Clear
5:16 AM 69.8 °F - 69.8 °F 100% 30.04 in 4.0 mi Calm Calm - N/A   Clear
5:56 AM 68.9 °F - 68.9 °F 100% 30.08 in 3.0 mi Calm Calm - N/A   Clear
6:30 AM 69.8 °F - 69.8 °F 100% 30.05 in 2.0 mi Calm Calm - N/A   Clear
6:49 AM 69.8 °F - 69.8 °F 100% 30.06 in 5.0 mi Calm Calm - N/A   Clear
6:56 AM 68.9 °F - 68.9 °F 100% 30.09 in 4.0 mi Calm Calm - N/A   Clear
7:56 AM 74.8 °F - 72.0 °F 91% 30.10 in 10.0 mi Calm Calm - N/A   Clear
8:56 AM 81.0 °F 85.6 °F 72.9 °F 76% 30.11 in 10.0 mi Calm Calm - N/A   Clear
9:56 AM 86.0 °F 93.0 °F 72.9 °F 65% 30.12 in 10.0 mi Calm Calm - N/A   Clear
10:56 AM 86.9 °F 93.3 °F 72.0 °F 61% 30.11 in 10.0 mi Calm Calm - N/A   Partly Cloudy
11:56 AM 88.0 °F 94.7 °F 72.0 °F 59% 30.10 in 10.0 mi Calm Calm - N/A   Clear
12:56 PM 88.0 °F 94.7 °F 72.0 °F 59% 30.08 in 10.0 mi WSW 4.6 mph - N/A   Scattered Clouds
1:56 PM 91.9 °F 99.5 °F 72.0 °F 52% 30.06 in 10.0 mi Variable 6.9 mph - N/A   Partly Cloudy
2:56 PM 92.8 °F 97.6 °F 68.9 °F 45% 30.04 in 10.0 mi WSW 4.6 mph - N/A   Clear
3:56 PM 92.8 °F 98.6 °F 70.0 °F 47% 30.04 in 10.0 mi Calm Calm - N/A   Clear
4:56 PM 91.9 °F 98.4 °F 70.9 °F 50% 30.02 in 10.0 mi Variable 3.5 mph - N/A   Clear
5:56 PM 90.9 °F 98.3 °F 72.0 °F 54% 30.02 in 10.0 mi WSW 3.5 mph - N/A   Clear
6:56 PM 86.9 °F 95.0 °F 73.9 °F 65% 30.01 in 10.0 mi Calm Calm - N/A   Clear
7:56 PM 79.0 °F - 73.9 °F 84% 30.00 in 10.0 mi Calm Calm - N/A   Clear
8:56 PM 77.0 °F - 73.9 °F 90% 30.01 in 10.0 mi Calm Calm - N/A   Clear
9:56 PM 74.8 °F - 72.9 °F 94% 30.02 in 10.0 mi Calm Calm - N/A   Clear
10:56 PM 73.9 °F - 72.9 °F 96% 30.03 in 6.0 mi Calm Calm - N/A   Clear
11:56 PM 72.9 °F - 72.9 °F 100% 30.02 in 7.0 mi Calm Calm - N/A   Clear